IRIDIUM 161

Last updated on Sun Jun 21 2026 00:03:14 GMT+0000 (Coordinated Universal Time)

1 43478U 18047C 26171.28888392 .00000286 00000+0 78987-4 0 9999 2 43478 86.4482 87.1745 0002568 83.3146 276.8347 14.43280100425582
UTC large
Height (km)
Speed (km/s)
/
Latitude / Longitude
Inclination (degrees)
Orbital Period (minutes)
Azimuth
Elevation
Range (km)
Doppler Factor

Next 0 passes for location: London (51.5072 / 0.1276)

No passes found over London.
IRIDIUM 161